Regional Weather Roundup
Issued by NWS

Current Version | Previous Version | Text Only | Print | Product List | Glossary On
Versions: 1 2 3 4 5 6 7 8 9 10 11 12 13 14 15 16 17 18 19 20 21 22 23 24 25 26 27 28 29 30 31 32 33 34 35 36 37 38 39 40 41 42 43 44 45 46 47 48 49 50
000
ASUS44 KBMX 160710
RWRAL

ALABAMA REGIONAL WEATHER ROUNDUP
NATIONAL WEATHER SERVICE BIRMINGHAM AL
200 AM CDT TUE SEP 16 2014

NOTE: "FAIR" INDICATES FEW OR NO CLOUDS BELOW 12,000 FEET
WITH NO SIGNIFICANT WEATHER AND/OR OBSTRUCTIONS TO VISIBILITY.

THE REMARK "TC" DENOTES TEMPERATURE IN DEGREES CELSIUS.

ALZ001>011-014-016>018-020-160800-
NORTH ALABAMA

CITY           SKY/WX    TMP DP  RH WIND       PRES   REMARKS
MUSCLE SHOALS  CLOUDY    71  67  87 CALM      30.11F
HUNTSVILLE     CLOUDY    74  69  85 CALM      30.10F
DECATUR        CLOUDY    71  68  90 N3        30.11S
HALEYVILLE     FAIR      71  71 100 CALM      30.14F
GADSDEN        CLOUDY    72  70  94 CALM      30.10F
$$

ALZ012-013-022-023-030>036-040>044-160800-
WEST CENTRAL ALABAMA

CITY           SKY/WX    TMP DP  RH WIND       PRES   REMARKS
TUSCALOOSA     CLOUDY    74  72  93 CALM      30.09S
$$

ALZ015-024>027-033>036-040>044-160800-
CENTRAL ALABAMA

CITY           SKY/WX    TMP DP  RH WIND       PRES   REMARKS
BIRMINGHAM     CLOUDY    73  70  90 CALM      30.13S
MONTGOMERY     MOCLDY    75  72  88 CALM      30.08S FOG
SHELBY CO ARPT CLOUDY    71  69  93 CALM      30.11S
MAXWELL AFB    PTCLDY    73  73 100 N2        30.07F
GREENVILLE     FOG       74  72  93 CALM      30.08S VSB 3/4
$$

ALZ019-021-028-029-037-038-045>048-160800-
EAST CENTRAL ALABAMA

CITY           SKY/WX    TMP DP  RH WIND       PRES   REMARKS
ANNISTON       CLOUDY    73  72  96 NE3       30.11S
ALEXANDER CITY FOG       74  73  96 CALM      30.11F VSB 1/4
AUBURN         PTCLDY    72  66  83 NE3       30.12F
$$

ALZ051>064-160800-
SOUTHWEST ALABAMA

CITY           SKY/WX    TMP DP  RH WIND       PRES   REMARKS
MOBILE         MOCLDY    76  76 100 CALM      30.07F
BROOKLEY FIELD MOCLDY    77  76  96 NW5       30.08S
EVERGREEN      CLEAR     75  73  93 CALM      30.08S
$$

ALZ049-050-065>069-160800-
SOUTHEAST ALABAMA

CITY           SKY/WX    TMP DP  RH WIND       PRES   REMARKS
DOTHAN         MOCLDY    75  74  96 CALM      30.11S
OZARK          MOCLDY    75  74  97 NE3       30.07S
TROY           PTCLDY    74  73  97 CALM      30.08S
EUFAULA        CLOUDY    76  74  93 CALM      30.07S
$$


USA.gov is the U.S. government's official web portal to all federal, state and local government web resources and services.